{"data":{"norad_id":60304,"intl_designator":"2024-133D","name":"STARLINK-11224 [DTC]","alt_names":[],"object_type":"PAYLOAD","status":"ACTIVE","operator":null,"country":"US","launch_date":"2024-07-28","launch_site_code":"AFWTR","launch_vehicle":null,"mission":null,"orbit_class":"UNKNOWN","rcs_meters":null,"size_class":null,"mass_kg":null,"dimensions":null,"purposes":["comms"],"wikipedia_slug":null,"has_3d_model":false,"image_url":null,"decayed_at":null,"tle_current":{"epoch":"2026-05-25T05:18:49.245984Z","epoch_age_seconds":70121,"freshness":"FRESH","line1":"1 60304U 24133D   26145.22140331  .00003317  00000+0  32271-4 0  9992","line2":"2 60304  53.1586 128.9964 0001141  98.1880 261.9267 15.69672421105836","mean_motion":15.69672421,"eccentricity":0.0001141,"inclination_deg":53.1586,"raan_deg":128.9964,"arg_perigee_deg":98.188,"mean_anomaly_deg":261.9267,"bstar":3.2271e-5,"rev_number":10583,"period_min":91.73888645394,"perigee_km":359.06548675461,"apogee_km":360.60309180282,"semimajor_km":6737.9712892787,"source":"CELESTRAK","updated_at":"2026-05-25T13:38:19.228362Z"}}}